Time,TemperatureF,DewpointF,PressureIn,WindDirection,WindDirectionDegrees,WindSpeedMPH,WindSpeedGustMPH,Humidity,HourlyPrecipIn,Conditions,Clouds,dailyrainin,SoftwareType,DateUTC
2013-03-12 06:42:00,36.5,31.7,29.48,SSE,158,0.0,0.0,83,0.00,,,0.00,WUHU216HW,2013-03-12 05:42:00,
2013-03-12 06:46:00,36.6,31.9,29.48,SSE,158,0.0,0.0,83,0.00,,,0.00,WUHU216HW,2013-03-12 05:46:00,
2013-03-12 06:51:00,37.0,32.3,29.48,SSE,158,0.0,0.0,83,0.00,,,0.00,WUHU216HW,2013-03-12 05:51:00,
2013-03-12 06:56:00,37.2,32.5,29.49,SE,135,0.0,0.0,83,0.00,,,0.00,WUHU216HW,2013-03-12 05:56:00,
2013-03-12 07:01:00,37.4,32.6,29.49,East,90,0.0,0.0,83,0.00,,,0.00,WUHU216HW,2013-03-12 06:01:00,
2013-03-12 07:07:00,37.7,32.7,29.49,East,90,0.0,0.0,82,0.00,,,0.00,WUHU216HW,2013-03-12 06:07:00,
2013-03-12 07:12:00,38.1,33.1,29.49,NNE,23,0.0,0.0,82,0.00,,,0.00,WUHU216HW,2013-03-12 06:12:00,
2013-03-12 07:17:00,38.4,33.1,29.50,East,90,0.0,0.0,81,0.00,,,0.00,WUHU216HW,2013-03-12 06:17:00,
2013-03-12 07:22:00,39.0,33.7,29.50,ESE,113,0.0,0.0,81,0.00,,,0.00,WUHU216HW,2013-03-12 06:22:00,
2013-03-12 07:27:00,39.5,33.9,29.50,ESE,113,0.0,0.0,80,0.00,,,0.00,WUHU216HW,2013-03-12 06:27:00,
2013-03-12 07:32:00,39.7,34.1,29.50,East,90,0.0,0.0,80,0.00,,,0.00,WUHU216HW,2013-03-12 06:32:00,
2013-03-12 07:37:00,39.9,34.2,29.50,NE,45,0.0,0.0,80,0.00,,,0.00,WUHU216HW,2013-03-12 06:37:00,
2013-03-12 07:42:00,39.9,33.5,29.50,ESE,113,0.0,0.0,78,0.00,,,0.00,WUHU216HW,2013-03-12 06:42:00,
2013-03-12 07:47:00,40.1,33.7,29.50,NE,45,0.0,0.0,78,0.00,,,0.00,WUHU216HW,2013-03-12 06:47:00,
2013-03-12 07:52:00,40.2,33.9,29.50,East,90,0.0,0.0,78,0.00,,,0.00,WUHU216HW,2013-03-12 06:52:00,
2013-03-12 07:57:00,40.4,33.9,29.50,ENE,68,0.0,1.3,78,0.00,,,0.00,WUHU216HW,2013-03-12 06:57:00,
2013-03-12 08:02:00,40.8,34.4,29.51,South,180,0.0,1.5,78,0.00,,,0.00,WUHU216HW,2013-03-12 07:02:00,
2013-03-12 08:07:00,40.8,34.7,29.51,ESE,113,1.7,1.7,79,0.00,,,0.00,WUHU216HW,2013-03-12 07:07:00,
2013-03-12 08:12:00,41.5,35.4,29.51,ENE,68,0.0,2.4,79,0.00,,,0.00,WUHU216HW,2013-03-12 07:12:00,
2013-03-12 08:17:00,41.5,35.3,29.50,ENE,68,0.0,2.4,78,0.00,,,0.00,WUHU216HW,2013-03-12 07:17:00,
2013-03-12 08:22:00,41.7,35.3,29.50,ESE,113,0.0,0.0,78,0.00,,,0.00,WUHU216HW,2013-03-12 07:22:00,
2013-03-12 08:27:00,42.0,35.4,29.51,East,90,0.0,1.7,78,0.00,,,0.00,WUHU216HW,2013-03-12 07:27:00,
2013-03-12 08:32:00,42.0,35.3,29.50,South,180,0.0,1.7,77,0.00,,,0.00,WUHU216HW,2013-03-12 07:32:00,
2013-03-12 08:37:00,42.0,35.3,29.51,South,180,0.0,0.0,77,0.00,,,0.00,WUHU216HW,2013-03-12 07:37:00,
2013-03-12 08:42:00,42.6,36.2,29.52,ESE,113,2.0,3.1,78,0.00,,,0.00,WUHU216HW,2013-03-12 07:42:00,
2013-03-12 08:47:00,43.1,36.4,29.52,East,90,0.0,3.1,77,0.00,,,0.00,WUHU216HW,2013-03-12 07:47:00,
2013-03-12 08:52:00,43.5,36.4,29.52,ENE,68,0.0,0.0,76,0.00,,,0.00,WUHU216HW,2013-03-12 07:52:00,
2013-03-12 08:57:00,43.3,36.2,29.52,East,90,0.0,0.0,76,0.00,,,0.00,WUHU216HW,2013-03-12 07:57:00,
2013-03-12 09:02:00,44.0,36.9,29.52,ESE,113,0.0,1.7,76,0.00,,,0.00,WUHU216HW,2013-03-12 08:02:00,
2013-03-12 09:07:00,44.6,37.4,29.52,South,180,0.0,1.7,75,0.00,,,0.00,WUHU216HW,2013-03-12 08:07:00,
2013-03-12 09:12:00,44.7,37.3,29.52,SSE,158,0.0,0.6,75,0.00,,,0.00,WUHU216HW,2013-03-12 08:12:00,
2013-03-12 09:17:00,44.9,37.4,29.53,ENE,68,0.0,0.6,75,0.00,,,0.00,WUHU216HW,2013-03-12 08:17:00,
2013-03-12 09:22:00,45.1,37.3,29.52,ESE,113,0.0,1.5,74,0.00,,,0.00,WUHU216HW,2013-03-12 08:22:00,
2013-03-12 09:27:00,45.1,37.3,29.52,ENE,68,0.0,1.5,73,0.00,,,0.00,WUHU216HW,2013-03-12 08:27:00,
2013-03-12 09:32:00,44.6,36.6,29.53,NE,45,0.0,0.0,73,0.00,,,0.00,WUHU216HW,2013-03-12 08:32:00,
2013-03-12 09:37:00,44.6,36.4,29.54,ENE,68,0.0,0.0,73,0.00,,,0.00,WUHU216HW,2013-03-12 08:37:00,
2013-03-12 09:42:00,44.9,37.1,29.54,ESE,113,0.0,0.0,74,0.00,,,0.00,WUHU216HW,2013-03-12 08:42:00,
2013-03-12 09:47:00,45.6,37.8,29.54,ESE,113,0.0,2.0,74,0.00,,,0.00,WUHU216HW,2013-03-12 08:47:00,
2013-03-12 09:52:00,45.6,37.5,29.53,South,180,0.0,2.0,73,0.00,,,0.00,WUHU216HW,2013-03-12 08:52:00,
2013-03-12 09:58:00,45.8,37.7,29.53,ESE,113,0.0,0.0,73,0.00,,,0.00,WUHU216HW,2013-03-12 08:58:00,
2013-03-12 10:03:00,46.5,38.4,29.52,SE,135,0.0,0.0,73,0.00,,,0.00,WUHU216HW,2013-03-12 09:03:00,
2013-03-12 10:08:00,46.9,38.3,29.53,East,90,0.8,0.8,72,0.00,,,0.00,WUHU216HW,2013-03-12 09:08:00,
2013-03-12 10:13:00,47.1,38.5,29.53,East,90,0.0,2.2,72,0.00,,,0.00,WUHU216HW,2013-03-12 09:13:00,
2013-03-12 10:18:00,47.1,38.2,29.53,NE,45,0.0,2.2,71,0.00,,,0.00,WUHU216HW,2013-03-12 09:18:00,
2013-03-12 10:23:00,47.3,38.3,29.53,ENE,68,0.0,0.0,71,0.00,,,0.00,WUHU216HW,2013-03-12 09:23:00,
2013-03-12 10:28:00,47.8,38.8,29.53,ENE,68,0.0,0.0,71,0.00,,,0.00,WUHU216HW,2013-03-12 09:28:00,
2013-03-12 10:33:00,48.0,38.6,29.53,ESE,113,0.0,1.5,70,0.00,,,0.00,WUHU216HW,2013-03-12 09:33:00,
2013-03-12 10:38:00,48.2,38.8,29.53,NE,45,0.0,1.5,70,0.00,,,0.00,WUHU216HW,2013-03-12 09:38:00,
2013-03-12 10:43:00,48.7,38.9,29.52,NE,45,0.0,2.4,69,0.00,,,0.00,WUHU216HW,2013-03-12 09:43:00,
2013-03-12 10:48:00,48.7,38.6,29.52,North,0,0.0,2.4,68,0.00,,,0.00,WUHU216HW,2013-03-12 09:48:00,
2013-03-12 10:53:00,49.2,39.1,29.52,North,0,1.1,1.5,68,0.00,,,0.00,WUHU216HW,2013-03-12 09:53:00,
2013-03-12 10:58:00,49.2,38.3,29.52,NNW,338,0.0,1.1,66,0.00,,,0.00,WUHU216HW,2013-03-12 09:58:00,
2013-03-12 11:03:00,49.2,38.3,29.52,SSW,203,0.0,0.0,66,0.00,,,0.00,WUHU216HW,2013-03-12 10:03:00,
2013-03-12 11:08:00,48.9,38.3,29.52,South,180,0.0,0.0,67,0.00,,,0.00,WUHU216HW,2013-03-12 10:08:00,
2013-03-12 11:13:00,49.1,38.5,29.52,East,90,0.0,0.0,67,0.00,,,0.00,WUHU216HW,2013-03-12 10:13:00,
2013-03-12 11:18:00,49.6,39.0,29.51,NE,45,0.0,0.0,67,0.00,,,0.00,WUHU216HW,2013-03-12 10:18:00,
2013-03-12 11:23:00,51.0,40.4,29.51,ESE,113,2.0,2.0,67,0.00,,,0.00,WUHU216HW,2013-03-12 10:23:00,
2013-03-12 11:28:00,53.9,42.7,29.52,NNW,338,0.0,3.1,65,0.00,,,0.00,WUHU216HW,2013-03-12 10:28:00,
2013-03-12 11:33:00,54.6,41.8,29.52,SSW,203,0.0,3.5,62,0.00,,,0.00,WUHU216HW,2013-03-12 10:33:00,
2013-03-12 11:38:00,54.6,41.2,29.52,ENE,68,0.0,3.5,60,0.00,,,0.00,WUHU216HW,2013-03-12 10:38:00,
2013-03-12 11:43:00,55.0,41.7,29.51,SE,135,0.0,3.1,61,0.00,,,0.00,WUHU216HW,2013-03-12 10:43:00,
2013-03-12 11:48:00,55.5,41.9,29.52,ENE,68,0.8,4.0,60,0.00,,,0.00,WUHU216HW,2013-03-12 10:48:00,
2013-03-12 11:53:00,55.4,41.7,29.51,NNW,338,0.0,4.0,60,0.00,,,0.00,WUHU216HW,2013-03-12 10:53:00,
2013-03-12 11:58:00,54.1,40.1,29.52,ENE,68,1.1,3.5,59,0.00,,,0.00,WUHU216HW,2013-03-12 10:58:00,
2013-03-12 12:03:00,54.5,40.7,29.51,SSE,158,3.1,4.4,60,0.00,,,0.00,WUHU216HW,2013-03-12 11:03:00,
2013-03-12 12:08:00,55.0,40.9,29.51,South,180,0.0,4.4,59,0.00,,,0.00,WUHU216HW,2013-03-12 11:08:00,
2013-03-12 12:13:00,54.5,40.9,29.52,SSE,158,3.8,3.8,60,0.00,,,0.00,WUHU216HW,2013-03-12 11:13:00,
2013-03-12 12:18:00,55.2,41.0,29.51,North,0,0.0,3.8,59,0.00,,,0.00,WUHU216HW,2013-03-12 11:18:00,
2013-03-12 12:23:00,54.8,40.4,29.50,East,90,0.0,0.0,58,0.00,,,0.00,WUHU216HW,2013-03-12 11:23:00,
2013-03-12 12:28:00,55.2,41.0,29.51,ESE,113,1.3,7.1,59,0.00,,,0.00,WUHU216HW,2013-03-12 11:28:00,
2013-03-12 12:33:00,55.7,41.1,29.50,SSE,158,0.0,7.1,58,0.00,,,0.00,WUHU216HW,2013-03-12 11:33:00,
2013-03-12 12:38:00,55.0,39.9,29.50,WNW,293,0.0,3.1,57,0.00,,,0.00,WUHU216HW,2013-03-12 11:38:00,
2013-03-12 12:43:00,55.2,40.6,29.50,ESE,113,1.7,1.7,58,0.00,,,0.00,WUHU216HW,2013-03-12 11:43:00,
2013-03-12 12:48:00,55.5,40.4,29.50,East,90,0.0,5.8,57,0.00,,,0.00,WUHU216HW,2013-03-12 11:48:00,
2013-03-12 12:53:00,54.6,39.6,29.50,ESE,113,0.0,5.8,57,0.00,,,0.00,WUHU216HW,2013-03-12 11:53:00,
2013-03-12 12:58:00,55.2,40.6,29.50,North,0,0.0,0.8,58,0.00,,,0.00,WUHU216HW,2013-03-12 11:58:00,
2013-03-12 13:03:00,54.8,40.4,29.50,ESE,113,2.0,3.8,58,0.00,,,0.00,WUHU216HW,2013-03-12 12:03:00,
2013-03-12 13:08:00,54.3,39.8,29.50,ESE,113,0.0,3.8,58,0.00,,,0.00,WUHU216HW,2013-03-12 12:08:00,
2013-03-12 13:13:00,54.3,40.2,29.49,East,90,0.0,0.8,59,0.00,,,0.00,WUHU216HW,2013-03-12 12:13:00,
2013-03-12 13:18:00,54.6,40.6,29.49,ESE,113,0.0,2.4,59,0.00,,,0.00,WUHU216HW,2013-03-12 12:18:00,
2013-03-12 13:23:00,54.6,40.6,29.49,SSE,158,2.9,2.9,59,0.00,,,0.00,WUHU216HW,2013-03-12 12:23:00,
2013-03-12 13:28:00,54.3,40.2,29.49,East,90,0.0,4.6,59,0.00,,,0.00,WUHU216HW,2013-03-12 12:28:00,
2013-03-12 13:33:00,53.7,39.9,29.49,East,90,0.0,4.6,59,0.00,,,0.00,WUHU216HW,2013-03-12 12:33:00,
2013-03-12 13:38:00,53.7,39.7,29.49,ESE,113,5.1,5.3,59,0.00,,,0.00,WUHU216HW,2013-03-12 12:38:00,
2013-03-12 13:43:00,53.4,39.9,29.49,ESE,113,0.0,5.3,60,0.00,,,0.00,WUHU216HW,2013-03-12 12:43:00,
2013-03-12 13:48:00,53.4,40.3,29.49,South,180,0.0,2.4,60,0.00,,,0.00,WUHU216HW,2013-03-12 12:48:00,
2013-03-12 13:53:00,53.2,40.1,29.48,ENE,68,0.0,0.0,61,0.00,,,0.00,WUHU216HW,2013-03-12 12:53:00,
2013-03-12 13:58:00,53.4,39.9,29.48,ENE,68,0.0,0.0,61,0.00,,,0.00,WUHU216HW,2013-03-12 12:58:00,
2013-03-12 14:03:00,53.7,40.6,29.47,ESE,113,0.0,1.5,61,0.00,,,0.00,WUHU216HW,2013-03-12 13:03:00,
2013-03-12 14:08:00,54.3,40.7,29.47,ESE,113,0.0,1.5,60,0.00,,,0.00,WUHU216HW,2013-03-12 13:08:00,
2013-03-12 14:13:00,55.0,41.5,29.47,ENE,68,0.8,10.0,60,0.00,,,0.00,WUHU216HW,2013-03-12 13:13:00,
2013-03-12 14:18:00,55.2,41.5,29.47,SSE,158,1.1,10.0,60,0.00,,,0.00,WUHU216HW,2013-03-12 13:18:00,
2013-03-12 14:23:00,54.6,41.0,29.47,South,180,2.4,4.6,60,0.00,,,0.00,WUHU216HW,2013-03-12 13:23:00,
2013-03-12 14:28:00,54.3,40.7,29.47,ESE,113,0.0,3.5,60,0.00,,,0.00,WUHU216HW,2013-03-12 13:28:00,
2013-03-12 14:33:00,54.6,40.9,29.47,SE,135,2.2,3.8,60,0.00,,,0.00,WUHU216HW,2013-03-12 13:33:00,
2013-03-12 14:38:00,55.0,41.3,29.47,SSE,158,5.3,6.2,60,0.00,,,0.00,WUHU216HW,2013-03-12 13:38:00,
2013-03-12 14:43:00,55.0,41.3,29.47,South,180,3.5,7.3,60,0.00,,,0.00,WUHU216HW,2013-03-12 13:43:00,
2013-03-12 14:48:00,55.0,41.3,29.47,ESE,113,4.0,7.3,60,0.00,,,0.00,WUHU216HW,2013-03-12 13:48:00,
2013-03-12 14:54:00,55.4,41.2,29.47,East,90,3.3,4.9,59,0.00,,,0.00,WUHU216HW,2013-03-12 13:54:00,
2013-03-12 14:59:00,55.5,41.4,29.47,ENE,68,0.0,4.6,59,0.00,,,0.00,WUHU216HW,2013-03-12 13:59:00,
2013-03-12 15:04:00,55.5,41.2,29.47,SE,135,0.0,2.4,59,0.00,,,0.00,WUHU216HW,2013-03-12 14:04:00,
2013-03-12 15:09:00,55.7,41.6,29.46,SE,135,2.9,4.4,59,0.00,,,0.00,WUHU216HW,2013-03-12 14:09:00,
2013-03-12 15:14:00,56.4,41.8,29.47,SE,135,4.0,4.4,58,0.00,,,0.00,WUHU216HW,2013-03-12 14:14:00,
2013-03-12 15:19:00,56.4,41.8,29.46,SSE,158,5.5,5.5,58,0.00,,,0.00,WUHU216HW,2013-03-12 14:19:00,
2013-03-12 15:24:00,55.5,40.9,29.46,SE,135,1.5,5.5,58,0.00,,,0.00,WUHU216HW,2013-03-12 14:24:00,
2013-03-12 15:29:00,55.0,40.4,29.46,South,180,5.8,5.8,58,0.00,,,0.00,WUHU216HW,2013-03-12 14:29:00,
2013-03-12 15:34:00,54.6,40.6,29.46,SSW,203,0.0,6.4,59,0.00,,,0.00,WUHU216HW,2013-03-12 14:34:00,
2013-03-12 16:10:00,53.6,40.1,29.43,SSE,158,0.0,0.0,60,0.00,,,0.00,WUHU216HW,2013-03-12 15:10:00,
2013-03-12 16:19:00,53.6,40.4,29.44,SSE,158,2.0,3.1,61,0.00,,,0.00,WUHU216HW,2013-03-12 15:19:00,
2013-03-12 16:24:00,53.4,39.9,29.44,SSE,158,0.0,2.0,60,0.00,,,0.00,WUHU216HW,2013-03-12 15:24:00,
2013-03-12 16:29:00,53.4,39.9,29.44,SSE,158,0.0,0.0,60,0.00,,,0.00,WUHU216HW,2013-03-12 15:29:00,
2013-03-12 16:34:00,53.4,40.3,29.44,South,180,0.0,3.5,61,0.00,,,0.00,WUHU216HW,2013-03-12 15:34:00,
2013-03-12 16:39:00,53.2,40.1,29.44,SE,135,0.0,3.5,61,0.00,,,0.00,WUHU216HW,2013-03-12 15:39:00,
2013-03-12 16:44:00,52.8,39.7,29.43,SE,135,0.0,1.3,61,0.00,,,0.00,WUHU216HW,2013-03-12 15:44:00,
2013-03-12 16:49:00,52.8,40.1,29.45,SE,135,0.0,1.3,62,0.00,,,0.00,WUHU216HW,2013-03-12 15:49:00,
2013-03-12 16:54:00,52.7,40.0,29.45,SE,135,0.0,0.0,62,0.00,,,0.00,WUHU216HW,2013-03-12 15:54:00,
2013-03-12 16:59:00,52.3,40.0,29.45,ESE,113,0.0,0.0,63,0.00,,,0.00,WUHU216HW,2013-03-12 15:59:00,
2013-03-12 17:04:00,52.1,39.8,29.45,ESE,113,0.0,0.0,63,0.00,,,0.00,WUHU216HW,2013-03-12 16:04:00,
2013-03-12 17:09:00,51.9,40.1,29.45,SE,135,0.0,0.0,64,0.00,,,0.00,WUHU216HW,2013-03-12 16:09:00,
2013-03-12 17:14:00,51.8,39.9,29.45,ESE,113,0.0,1.3,64,0.00,,,0.00,WUHU216HW,2013-03-12 16:14:00,
2013-03-12 17:19:00,51.6,39.7,29.44,ESE,113,0.0,1.3,64,0.00,,,0.00,WUHU216HW,2013-03-12 16:19:00,
2013-03-12 17:24:00,51.6,40.1,29.45,ESE,113,0.0,0.0,65,0.00,,,0.00,WUHU216HW,2013-03-12 16:24:00,
2013-03-12 17:30:00,51.4,40.0,29.46,ESE,113,0.0,0.0,65,0.00,,,0.00,WUHU216HW,2013-03-12 16:30:00,
2013-03-12 17:35:00,51.2,40.2,29.46,ESE,113,0.0,0.0,66,0.00,,,0.00,WUHU216HW,2013-03-12 16:35:00,